Вернуться в каталог

HYDRA-3

АктивенНаукаSSO
NORAD 69022·PAYLOAD·🇧🇬 Bulgaria

Запущен May 3, 2026 с Vandenberg Space Force Base

Loading…

Ближайшие Пролёты (ближайшие 24 часа)

TLE

СвежийSource: Space-Track

Эпоха: Sep 14, 2026, 03:51 UTC

1 69022U 26100AU  26257.16059998  .00004090  00000-0  18937-3 0  9991
2 69022  97.3895 153.2337 0006243  54.5896 305.5922 15.20648458 20324

Отслеживайте HYDRA-3 в реальном времени с AllMySat

Download on the App Store